This is the latest recevied weather packets stored in our database for station/object EA1AHA-13. If no packets are shown the sender has not sent any weather packets the latest 10 day(s).
| Time | Temp. | Humidity | Pressure | Rain* | Wind** | Luminosity | Snow |
|---|---|---|---|---|---|---|---|
| 1777893677 | 15° C | 64% | 1013.6 hPa | 0 mm | - | - | - |
| 1777893101 | 14.44° C | 69% | 1013.6 hPa | 0 mm | - | - | - |
| 1777892478 | 14.44° C | 71% | 1013.7 hPa | 0 mm | - | - | - |
| 1777891901 | 14.44° C | 71% | 1013.7 hPa | 0 mm | - | - | - |
| 1777891092 | 14.44° C | 69% | 1013.4 hPa | 0 mm | - | - | - |
| 1777890364 | 15° C | 69% | 1013.5 hPa | 0 mm | - | - | - |
| 1777889789 | 15° C | 69% | 1013.2 hPa | 0 mm | - | - | - |
| 1777889212 | 15.56° C | 68% | 1013.5 hPa | 0 mm | - | - | - |
| 1777888589 | 15° C | 69% | 1013.5 hPa | 0 mm | - | - | - |
| 1777887964 | 15.56° C | 67% | 1013.5 hPa | 0 mm | - | - | - |
| 1777887389 | 14.44° C | 69% | 1013.5 hPa | 0 mm | - | - | - |
| 1777886764 | 15° C | 70% | 1013.4 hPa | 0 mm | - | - | - |
| 1777886189 | 13.89° C | 71% | 1013.6 hPa | 0 mm | - | - | - |
| 1777885565 | 14.44° C | 71% | 1013.6 hPa | 0 mm | - | - | - |
| 1777884989 | 13.89° C | 74% | 1013.6 hPa | 0 mm | - | - | - |
| 1777884365 | 13.89° C | 74% | 1013.3 hPa | 0 mm | - | - | - |
| 1777883789 | 13.33° C | 76% | 1013.4 hPa | 0 mm | - | - | - |
| 1777883165 | 13.89° C | 78% | 1013.3 hPa | 0 mm | - | - | - |
| 1777882589 | 13.89° C | 81% | 1013.3 hPa | 0 mm | - | - | - |
| 1777881965 | 13.33° C | 80% | 1013.3 hPa | 0 mm | - | - | - |
| 1777881388 | 12.78° C | 86% | 1013.3 hPa | 0 mm | - | - | - |
| 1777880765 | 12.22° C | 89% | 1013 hPa | 0 mm | - | - | - |
| 1777880189 | 11.67° C | 89% | 1013.2 hPa | 0 mm | - | - | - |
| 1777879566 | 11.67° C | 87% | 1013.3 hPa | 0 mm | - | - | - |
| 1777878989 | 11.67° C | 86% | 1013 hPa | 0 mm | - | - | - |
* Rain latest hour (hover to see other rain measurements)
** Current wind speed in m/s (hover to see current wind gust speed)